This demonstration page uses our WeatherBlox Daily Observations layout. Learn more.

Left ArrowRight Arrow

38.80484, -77.04692

Hourly Observations for August 28, 2019

Temp ( °F °C ) Dew Point ( °F °C ) Humidity (%) Winds ( mph kmh ) Pressure ( in mb ) Visibility ( mi km ) Precip ( " mm )
12:52 am 00:52 Mostly Cloudy 72 22.2 66 18.9 82 82 Calm 29.97 1015 10 16 0.00 0.00
1:52 am 01:52 Cloudy 72 22.2 67 19.4 84 84 SE 3 6 29.96 1014 10 16 0.00 0.00
2:52 am 02:52 Mostly Cloudy 71 21.7 67 19.4 87 87 Calm 29.94 1014 10 16 0.00 0.00
3:52 am 03:52 Cloudy 71 21.7 67 19.4 87 87 ENE 6 9 29.93 1014 10 16 0.00 0.00
4:52 am 04:52 Cloudy 71 21.7 67 19.4 87 87 NE 3 6 29.91 1013 10 16 0.00 0.00
5:01 am 05:01 Cloudy 71 21.7 67 19.4 87 87 NNE 3 6 29.92 1013 10 16 0.00 0.00
5:24 am 05:24 Cloudy 71 21.7 67 19.4 87 87 NNE 5 7 29.91 1013 10 16 0.00 0.00
5:52 am 05:52 Cloudy 71 21.7 67 19.4 87 87 ENE 6 9 29.91 1013 10 16 0.00 0.00
6:23 am 06:23 Mostly Cloudy 70 21.1 67 19.4 90 90 NE 6 9 29.92 1013 10 16 0.00 0.00
6:44 am 06:44 Mostly Cloudy 71 21.7 67 19.4 87 87 Calm 29.92 1013 10 16 0.00 0.00
6:52 am 06:52 Mostly Cloudy 71 21.7 67 19.4 87 87 N 3 6 29.92 1013 10 16 0.00 0.00
7:52 am 07:52 Cloudy 73 22.8 68 20 84 84 NE 5 7 29.92 1013 10 16 0.00 0.00
8:52 am 08:52 Cloudy 74 23.3 68 20 82 82 NE 5 7 29.90 1013 10 16 0.00 0.00
9:02 am 09:02 Cloudy 74 23.3 68 20 82 82 ENE 5 7 29.90 1012 10 16 0.00 0.00
9:25 am 09:25 Cloudy 75 23.9 69 20.6 82 82 ENE 6 9 29.90 1012 10 16 0.00 0.00
9:52 am 09:52 Cloudy 75 23.9 69 20.6 82 82 NE 3 6 29.90 1013 10 16 0.00 0.00
10:06 am 10:06 Cloudy 75 23.9 69 20.6 82 82 NNE 5 7 29.90 1012 10 16 0.00 0.00
10:52 am 10:52 Cloudy 77 25 69 20.6 77 77 Calm 29.90 1012 10 16 0.00 0.00
11:11 am 11:11 Cloudy 76 24.4 68 20 77 77 Calm 29.90 1012 10 16 0.00 0.00
11:52 am 11:52 Cloudy 78 25.6 68 20 71 71 SSE 5 7 29.88 1012 10 16 0.00 0.00
12:52 pm 12:52 Cloudy 80 26.7 68 20 67 67 SSE 7 11 29.87 1012 10 16 0.00 0.00
2:52 pm 14:52 Cloudy 81 27.2 68 20 65 65 SSE 6 9 29.85 1011 10 16 0.00 0.00
3:52 pm 15:52 Cloudy with Light Rain 81 27.2 66 18.9 61 61 WNW 18 30 29.85 1011 10 16 0.00 0.00
4:05 pm 16:05 Cloudy with Light Rain 74 23.3 66 18.9 76 76 WNW 18 30 29.86 1011 9 14 0.00 0.00
4:52 pm 16:52 Cloudy with Light Rain 73 22.8 68 20 84 84 NW 9 15 29.86 1011 10 16 0.02 0.51
5:52 pm 17:52 Cloudy with Light Rain 74 23.3 65 18.3 74 74 NNW 9 15 29.86 1011 10 16 0.00 0.00
6:52 pm 18:52 Mostly Cloudy 74 23.3 63 17.2 69 69 N 9 15 29.85 1011 10 16 0.00 0.00
7:52 pm 19:52 Mostly Cloudy 73 22.8 62 16.7 69 69 NNW 8 13 29.86 1011 10 16 0.00 0.00
8:52 pm 20:52 Mostly Cloudy 71 21.7 63 17.2 76 76 N 7 11 29.88 1012 10 16 0.00 0.00
9:52 pm 21:52 Partly Cloudy 71 21.7 63 17.2 76 76 NW 6 9 29.88 1012 10 16 0.00 0.00
10:52 pm 22:52 Mostly Clear 70 21.1 63 17.2 79 79 Calm 29.89 1012 10 16 0.00 0.00
11:52 pm 23:52 Mostly Clear 71 21.7 64 17.8 79 79 Calm 29.90 1012 10 16 0.00 0.00

Powered by AerisWeather